N2NET Weather Reports


time (UTC)temp
F
wind
direction
speed
knots
gust
knots
rain 1hr
in
rain 24hr
in
rain mn
in
humidity
%
barometer
mb
20260905104619 56 0 0.0 0.0 0.00 0.01 0.00 100 1011.3
20260905103104 55 0 0.0 0.0 0.00 0.01 0.00 100 1011.1
20260905101604 55 0 0.0 0.9 0.00 0.01 0.00 100 1011.1
20260905100104 56 0 0.0 1.7 0.00 0.01 0.00 100 1011.0
20260905094716 56 210 0.0 0.0 0.00 0.01 0.00 100 1011.2
20260905093131 57 0 0.0 0.0 0.00 0.01 0.00 100 1011.2
20260905091605 57 0 0.0 0.0 0.00 0.01 0.00 100 1011.1
20260905090103 58 210 0.0 1.7 0.00 0.01 0.00 100 1011.1
20260905084609 58 0 0.0 1.7 0.00 0.01 0.00 100 1011.0
20260905083103 58 0 0.0 0.9 0.00 0.01 0.00 100 1011.1
20260905081605 59 0 0.0 1.7 0.00 0.01 0.00 100 1011.1
20260905080121 60 207 0.9 1.7 0.00 0.01 0.00 100 1011.2
20260905074606 60 0 0.0 1.7 0.00 0.01 0.00 100 1011.3
20260905073110 61 0 0.0 0.9 0.00 0.01 0.00 19 1011.3
20260905071601 61 231 0.9 2.6 0.00 0.01 0.00 50 1011.5
20260905070107 63 214 1.7 2.6 0.00 0.01 0.00 69 1011.4
20260905064557 65 260 0.9 6.1 0.00 0.09 0.00 71 1011.6
20260905063100 65 245 0.9 9.6 0.00 0.09 0.00 71 1011.6
20260905061606 65 0 4.3 12.2 0.00 0.09 0.00 71 1011.6
20260905060109 64 229 0.0 4.3 0.00 0.09 0.00 72 1011.7
20260905054608 66 326 0.9 8.7 0.00 0.14 0.00 71 1011.7
20260905053059 66 296 0.9 12.2 0.00 0.14 0.00 71 1011.9
20260905051610 66 301 2.6 7.8 0.00 0.14 0.00 71 1012.1
20260905044604 66 246 2.6 10.4 0.00 0.14 0.00 71 1012.3
20260905043058 65 176 0.9 3.5 0.00 0.14 0.00 72 1012.3
20260905041611 66 207 0.9 9.6 0.00 0.14 0.00 71 1012.2
20260905040112 66 334 0.9 5.2 0.00 0.14 0.00 71 1012.3
20260905034606 66 0 0.0 7.8 0.00 0.14 0.14 70 1012.3
20260905033114 68 335 1.7 10.4 0.00 0.14 0.14 68 1012.3
20260905031621 68 276 1.7 12.2 0.00 0.14 0.14 67 1012.1
20260905030109 68 323 2.6 9.6 0.00 0.14 0.14 66 1012.1
20260905024613 68 37 0.9 7.0 0.00 0.14 0.14 66 1012.1
20260905023107 68 336 1.7 6.1 0.00 0.14 0.14 66 1012.3
20260905021615 67 0 1.7 11.3 0.00 0.14 0.14 67 1012.4
20260905020058 63 0 0.0 5.2 0.00 0.14 0.14 45 1012.7
20260905014602 63 206 0.0 2.6 0.00 0.14 0.14 48 1012.3
20260905013120 63 0 0.0 1.7 0.00 0.14 0.14 31 1012.5
20260905011610 63 0 0.0 2.6 0.00 0.14 0.14 33 1012.6
20260905004606 63 0 0.0 0.0 0.00 0.14 0.14 8 1012.7
20260905003102 64 0 0.0 0.0 0.00 0.14 0.14 27 1012.6
20260905001601 64 0 0.0 0.0 0.00 0.14 0.14 40 1012.4
20260905000106 65 0 0.9 6.1 0.00 0.14 0.14 45 1012.2
20260904234604 65 0 0.0 0.9 0.00 0.14 0.14 48 1012.1
20260904233109 66 0 0.0 0.9 0.00 0.14 0.14 62 1012.0
20260904231602 67 0 0.0 0.9 0.00 0.14 0.14 67 1011.9
20260904230113 69 280 0.0 3.5 0.00 0.14 0.14 73 1011.9
20260904224622 72 302 2.6 9.6 0.00 0.14 0.14 66 1012.0
20260904223110 73 0 0.0 4.3 0.00 0.14 0.14 68 1011.9
20260904221628 74 332 3.5 11.3 0.00 0.14 0.14 61 1011.9
20260904220109 75 0 0.0 3.5 0.00 0.14 0.14 68 1011.6
20260904214609 75 0 0.9 7.8 0.00 0.14 0.14 65 1011.5
20260904213108 74 346 2.6 6.1 0.00 0.14 0.14 63 1011.5
20260904211606 75 0 0.0 7.0 0.00 0.14 0.14 61 1011.5
20260904210123 76 215 0.9 10.4 0.00 0.14 0.14 59 1011.5
20260904204605 77 321 0.9 8.7 0.00 0.14 0.14 53 1011.6
20260904203105 77 265 4.3 10.4 0.00 0.14 0.14 54 1011.7
20260904201630 77 325 5.2 9.6 0.00 0.14 0.14 53 1011.7
20260904200121 78 314 0.9 13.0 0.00 0.14 0.14 57 1011.8
20260904194605 77 289 3.5 10.4 0.00 0.14 0.14 55 1011.9
20260904193113 78 309 1.7 7.0 0.00 0.14 0.14 54 1011.9
20260904191605 78 321 2.6 8.7 0.00 0.14 0.14 55 1011.9
20260904184609 78 38 2.6 10.4 0.00 0.14 0.14 54 1012.0
20260904183105 78 312 3.5 11.3 0.00 0.14 0.14 55 1012.1
20260904181603 78 300 3.5 9.6 0.00 0.14 0.14 56 1012.3
20260904180101 78 329 3.5 7.8 0.00 0.14 0.14 53 1012.4
20260904174604 78 277 1.7 11.3 0.00 0.14 0.14 54 1012.5
20260904173108 78 266 2.6 10.4 0.00 0.14 0.14 56 1012.3
20260904171623 77 264 5.2 15.6 0.00 0.14 0.14 59 1012.5
20260904170108 77 324 1.7 4.3 0.00 0.14 0.14 56 1012.4
20260904164604 77 289 3.5 13.9 0.00 0.14 0.14 58 1012.2
20260904163101 76 12 0.9 11.3 0.00 0.14 0.14 59 1012.7
20260904161611 75 288 1.7 10.4 0.00 0.14 0.14 60 1012.9
20260904160107 75 308 1.7 12.2 0.00 0.14 0.14 60 1013.1
20260904154605 75 311 3.5 12.2 0.00 0.14 0.14 60 1013.1
20260904153115 75 319 3.5 10.4 0.00 0.14 0.14 63 1013.2
20260904151559 75 338 2.6 7.8 0.00 0.14 0.14 61 1013.4
20260904150104 75 218 0.0 3.5 0.00 0.14 0.14 64 1013.2
20260904144615 74 295 0.9 5.2 0.00 0.14 0.14 64 1013.4
20260904143123 73 300 2.6 13.0 0.00 0.14 0.14 65 1013.4
20260904141604 72 283 5.2 7.8 0.00 0.14 0.14 67 1013.3
20260904140105 71 0 0.0 10.4 0.00 0.14 0.14 67 1013.4
20260904134606 72 298 1.7 11.3 0.00 0.14 0.14 66 1013.3
20260904133110 72 56 4.3 11.3 0.00 0.14 0.14 63 1013.2
20260904131605 71 222 0.9 4.3 0.00 0.14 0.14 100 1013.2
20260904130109 69 0 0.9 4.3 0.00 0.14 0.14 100 1013.3
20260904124602 68 222 1.7 3.5 0.00 0.14 0.14 100 1013.1
20260904123101 66 205 0.9 3.5 0.00 0.14 0.14 100 1013.0
20260904121603 65 228 0.0 2.6 0.00 0.14 0.14 100 1012.8
20260904120109 64 238 0.9 3.5 0.00 0.14 0.14 100 1012.7
20260904114608 64 263 0.0 3.5 0.00 0.14 0.14 100 1012.7
20260904113109 63 229 0.0 4.3 0.00 0.14 0.14 100 1012.5
20260904111604 62 0 0.0 1.7 0.00 0.14 0.14 100 1012.4
20260904110101 61 238 0.0 2.6 0.01 0.14 0.14 100 1012.2